| time (UTC) | temp C | wind direction | speed KPH | gust KPH | rain 1hr cm | rain 24hr cm | rain mn cm | humidity % | barometer mb |
| 20260507213050 | 20 | 334 | 11.3 | 33.8 | 0.00 | 0.00 | 0.00 | 31 | 1011.8 |
| 20260507211548 | 20 | 355 | 16.1 | 30.6 | 0.00 | 0.00 | 0.00 | 31 | 1012.0 |
| 20260507210040 | 20 | 12 | 16.1 | 29.0 | 0.00 | 0.00 | 0.00 | 32 | 1011.9 |
| 20260507204536 | 19 | 329 | 3.2 | 17.7 | 0.00 | 0.00 | 0.00 | 31 | 1012.0 |
| 20260507203043 | 18 | 304 | 14.5 | 20.9 | 0.00 | 0.00 | 0.00 | 32 | 1011.8 |
| 20260507201547 | 19 | 355 | 14.5 | 29.0 | 0.00 | 0.00 | 0.00 | 32 | 1012.0 |
| 20260507200043 | 18 | 304 | 16.1 | 25.7 | 0.00 | 0.00 | 0.00 | 34 | 1012.0 |
| 20260507194536 | 19 | 335 | 12.9 | 24.1 | 0.00 | 0.00 | 0.00 | 32 | 1012.0 |
| 20260507193040 | 18 | 36 | 14.5 | 27.4 | 0.00 | 0.00 | 0.00 | 34 | 1012.0 |
| 20260507191537 | 18 | 338 | 12.9 | 25.7 | 0.00 | 0.00 | 0.00 | 33 | 1012.0 |
| 20260507190043 | 18 | 336 | 14.5 | 25.7 | 0.00 | 0.00 | 0.00 | 35 | 1012.1 |
| 20260507184541 | 18 | 332 | 19.3 | 29.0 | 0.00 | 0.00 | 0.00 | 34 | 1012.0 |
| 20260507183101 | 18 | 297 | 11.3 | 22.5 | 0.00 | 0.00 | 0.00 | 35 | 1011.9 |
| 20260507181543 | 18 | 299 | 19.3 | 30.6 | 0.00 | 0.00 | 0.00 | 34 | 1011.9 |
| 20260507180050 | 18 | 318 | 8.0 | 22.5 | 0.00 | 0.00 | 0.00 | 36 | 1012.3 |
| 20260507174542 | 17 | 350 | 12.9 | 24.1 | 0.00 | 0.00 | 0.00 | 36 | 1012.4 |
| 20260507173054 | 17 | 352 | 12.9 | 24.1 | 0.00 | 0.00 | 0.00 | 38 | 1012.4 |
| 20260507171537 | 17 | 338 | 17.7 | 24.1 | 0.00 | 0.00 | 0.00 | 38 | 1012.7 |
| 20260507170047 | 17 | 304 | 16.1 | 24.1 | 0.00 | 0.00 | 0.00 | 40 | 1012.8 |
| 20260507164535 | 17 | 9 | 16.1 | 25.7 | 0.00 | 0.00 | 0.00 | 39 | 1013.0 |
| 20260507163043 | 17 | 9 | 14.5 | 22.5 | 0.00 | 0.00 | 0.00 | 40 | 1012.8 |
| 20260507161550 | 16 | 296 | 11.3 | 19.3 | 0.00 | 0.00 | 0.00 | 41 | 1012.8 |
| 20260507160036 | 16 | 0 | 3.2 | 11.3 | 0.00 | 0.00 | 0.00 | 43 | 1012.9 |
| 20260507154535 | 15 | 286 | 1.6 | 9.7 | 0.00 | 0.00 | 0.00 | 46 | 1012.8 |
| 20260507153045 | 13 | 278 | 4.8 | 12.9 | 0.00 | 0.00 | 0.00 | 46 | 1012.8 |
| 20260507151542 | 12 | 263 | 4.8 | 12.9 | 0.00 | 0.00 | 0.00 | 49 | 1012.7 |
| 20260507150039 | 11 | 284 | 4.8 | 11.3 | 0.00 | 0.00 | 0.00 | 52 | 1012.5 |
| 20260507144539 | 10 | 119 | 4.8 | 6.4 | 0.00 | 0.00 | 0.00 | 55 | 1012.3 |
| 20260507143056 | 10 | 94 | 4.8 | 6.4 | 0.00 | 0.00 | 0.00 | 57 | 1012.3 |
| 20260507141542 | 9 | 90 | 3.2 | 6.4 | 0.00 | 0.00 | 0.00 | 61 | 1012.2 |
| 20260507140039 | 8 | 0 | 0.0 | 4.8 | 0.00 | 0.00 | 0.00 | 58 | 1012.3 |
| 20260507134537 | 8 | 49 | 3.2 | 6.4 | 0.00 | 0.00 | 0.00 | 58 | 1012.2 |
| 20260507133047 | 7 | 46 | 3.2 | 4.8 | 0.00 | 0.00 | 0.00 | 59 | 1012.1 |
| 20260507131545 | 7 | 46 | 1.6 | 8.0 | 0.00 | 0.00 | 0.00 | 59 | 1012.0 |
| 20260507130058 | 7 | 34 | 8.0 | 14.5 | 0.00 | 0.00 | 0.00 | 57 | 1012.1 |
| 20260507124541 | 7 | 0 | 0.0 | 0.0 | 0.00 | 0.00 | 0.00 | 57 | 1011.8 |
| 20260507123035 | 8 | 0 | 0.0 | 4.8 | 0.00 | 0.00 | 0.00 | 55 | 1011.4 |
| 20260507121535 | 8 | 13 | 3.2 | 8.0 | 0.00 | 0.00 | 0.00 | 56 | 1011.7 |
| 20260507120042 | 8 | 319 | 4.8 | 8.0 | 0.00 | 0.00 | 0.00 | 54 | 1011.6 |
| 20260507114540 | 8 | 236 | 0.0 | 4.8 | 0.00 | 0.00 | 0.00 | 53 | 1011.3 |
| 20260507113039 | 7 | 0 | 0.0 | 4.8 | 0.00 | 0.00 | 0.00 | 52 | 1011.4 |
| 20260507111536 | 8 | 0 | 1.6 | 8.0 | 0.00 | 0.00 | 0.00 | 51 | 1011.4 |
| 20260507110055 | 8 | 246 | 4.8 | 11.3 | 0.00 | 0.00 | 0.00 | 51 | 1011.3 |
| 20260507104549 | 7 | 239 | 8.0 | 11.3 | 0.00 | 0.00 | 0.00 | 52 | 1011.1 |
| 20260507103106 | 7 | 219 | 3.2 | 8.0 | 0.00 | 0.00 | 0.00 | 51 | 1010.9 |
| 20260507101540 | 7 | 219 | 4.8 | 11.3 | 0.00 | 0.00 | 0.00 | 51 | 1010.8 |
| 20260507100048 | 7 | 223 | 6.4 | 12.9 | 0.00 | 0.00 | 0.00 | 52 | 1010.8 |
| 20260507094538 | 7 | 237 | 8.0 | 11.3 | 0.00 | 0.00 | 0.00 | 52 | 1010.6 |
| 20260507093043 | 8 | 175 | 4.8 | 8.0 | 0.00 | 0.00 | 0.00 | 49 | 1010.4 |
| 20260507091544 | 8 | 173 | 1.6 | 4.8 | 0.00 | 0.00 | 0.00 | 48 | 1010.4 |
| 20260507090039 | 8 | 0 | 0.0 | 8.0 | 0.00 | 0.00 | 0.00 | 48 | 1010.0 |
| 20260507084545 | 8 | 0 | 0.0 | 4.8 | 0.00 | 0.00 | 0.00 | 47 | 1010.0 |
| 20260507083035 | 8 | 172 | 1.6 | 9.7 | 0.00 | 0.00 | 0.00 | 47 | 1009.8 |
| 20260507081536 | 9 | 171 | 8.0 | 12.9 | 0.00 | 0.00 | 0.00 | 49 | 1009.6 |
| 20260507080047 | 10 | 163 | 8.0 | 11.3 | 0.00 | 0.00 | 0.00 | 52 | 1009.3 |
| 20260507074538 | 10 | 103 | 1.6 | 11.3 | 0.00 | 0.00 | 0.00 | 51 | 1009.4 |
| 20260507073042 | 11 | 99 | 1.6 | 11.3 | 0.00 | 0.00 | 0.00 | 50 | 1009.4 |
| 20260507071535 | 11 | 69 | 6.4 | 20.9 | 0.00 | 0.00 | 0.00 | 50 | 1009.4 |
| 20260507070051 | 11 | 49 | 6.4 | 20.9 | 0.00 | 0.00 | 0.00 | 48 | 1009.0 |
| 20260507064549 | 10 | 117 | 6.4 | 16.1 | 0.00 | 0.00 | 0.00 | 50 | 1008.6 |
| 20260507063037 | 10 | 112 | 4.8 | 12.9 | 0.00 | 0.00 | 0.00 | 47 | 1008.3 |
| 20260507061537 | 11 | 360 | 8.0 | 16.1 | 0.00 | 0.00 | 0.00 | 45 | 1007.9 |
| 20260507060037 | 12 | 340 | 11.3 | 20.9 | 0.00 | 0.00 | 0.00 | 45 | 1007.6 |
| 20260507054547 | 14 | 329 | 19.3 | 32.2 | 0.00 | 0.00 | 0.00 | 43 | 1007.5 |
| 20260507053046 | 15 | 339 | 19.3 | 35.4 | 0.00 | 0.00 | 0.00 | 43 | 1007.7 |
| 20260507051543 | 15 | 348 | 9.7 | 25.7 | 0.00 | 0.00 | 0.00 | 43 | 1007.3 |
| 20260507050043 | 16 | 311 | 20.9 | 30.6 | 0.00 | 0.00 | 0.00 | 41 | 1007.0 |
| 20260507044539 | 17 | 294 | 22.5 | 33.8 | 0.00 | 0.00 | 0.00 | 39 | 1006.8 |
| 20260507043035 | 17 | 287 | 22.5 | 35.4 | 0.00 | 0.00 | 0.00 | 39 | 1006.9 |
| 20260507041555 | 17 | 290 | 25.7 | 32.2 | 0.00 | 0.00 | 0.00 | 39 | 1007.0 |
| 20260507040042 | 17 | 284 | 24.1 | 35.4 | 0.00 | 0.00 | 0.00 | 38 | 1006.9 |
| 20260507034536 | 17 | 282 | 24.1 | 33.8 | 0.00 | 0.00 | 0.00 | 38 | 1006.8 |
| 20260507033038 | 17 | 286 | 19.3 | 30.6 | 0.00 | 0.00 | 0.00 | 38 | 1006.8 |
| 20260507031543 | 17 | 289 | 17.7 | 27.4 | 0.00 | 0.00 | 0.00 | 38 | 1007.0 |
| 20260507030043 | 17 | 301 | 8.0 | 19.3 | 0.00 | 0.00 | 0.00 | 38 | 1007.2 |
| 20260507024541 | 17 | 153 | 3.2 | 9.7 | 0.00 | 0.00 | 0.00 | 41 | 1007.2 |
| 20260507023037 | 17 | 155 | 4.8 | 12.9 | 0.00 | 0.00 | 0.00 | 40 | 1007.3 |
| 20260507021538 | 18 | 0 | 0.0 | 11.3 | 0.00 | 0.00 | 0.00 | 39 | 1007.3 |
| 20260507020045 | 18 | 60 | 4.8 | 22.5 | 0.00 | 0.00 | 0.00 | 38 | 1007.3 |
| 20260507014552 | 19 | 22 | 8.0 | 27.4 | 0.00 | 0.00 | 0.00 | 39 | 1007.2 |
| 20260507013043 | 20 | 331 | 6.4 | 19.3 | 0.00 | 0.00 | 0.00 | 24 | 1007.2 |
| 20260507011542 | 20 | 40 | 1.6 | 8.0 | 0.00 | 0.00 | 0.00 | 22 | 1006.8 |
| 20260507010042 | 21 | 32 | 3.2 | 8.0 | 0.00 | 0.00 | 0.00 | 21 | 1007.1 |
| 20260507004536 | 21 | 28 | 3.2 | 9.7 | 0.00 | 0.00 | 0.00 | 20 | 1007.2 |
| 20260507003036 | 21 | 355 | 6.4 | 14.5 | 0.00 | 0.00 | 0.00 | 21 | 1007.3 |
| 20260507001553 | 22 | 5 | 8.0 | 17.7 | 0.00 | 0.00 | 0.00 | 20 | 1007.3 |
| 20260507000038 | 22 | 16 | 12.9 | 25.7 | 0.00 | 0.00 | 0.00 | 20 | 1007.4 |
| 20260506234601 | 22 | 355 | 14.5 | 38.6 | 0.00 | 0.00 | 0.00 | 19 | 1007.6 |
| 20260506233039 | 22 | 334 | 16.1 | 33.8 | 0.00 | 0.00 | 0.00 | 19 | 1007.7 |
| 20260506231537 | 22 | 318 | 17.7 | 33.8 | 0.00 | 0.00 | 0.00 | 20 | 1008.0 |
| 20260506230052 | 22 | 299 | 14.5 | 32.2 | 0.00 | 0.00 | 0.00 | 20 | 1008.1 |
| 20260506224540 | 22 | 328 | 20.9 | 35.4 | 0.00 | 0.00 | 0.00 | 19 | 1008.0 |
| 20260506223042 | 22 | 352 | 22.5 | 32.2 | 0.00 | 0.00 | 0.00 | 19 | 1008.2 |
| 20260506221552 | 22 | 355 | 12.9 | 37.0 | 0.00 | 0.00 | 0.00 | 20 | 1008.3 |
| 20260506220049 | 21 | 339 | 16.1 | 32.2 | 0.00 | 0.00 | 0.00 | 21 | 1008.5 |
| 20260506214544 | 21 | 343 | 6.4 | 32.2 | 0.00 | 0.00 | 0.00 | 20 | 1008.6 |